| time (UTC) | temp F | wind direction | speed MPH | gust MPH | rain 1hr in | rain 24hr in | rain mn in | humidity % | barometer mb |
| 20260507184528 | 64 | 205 | 0.0 | 4.0 | 0.00 | 0.15 | 0.11 | 45 | 1009.7 |
| 20260507183026 | 63 | 223 | 0.0 | 3.0 | 0.00 | 0.15 | 0.11 | 46 | 1009.8 |
| 20260507181521 | 61 | 96 | 0.0 | 1.0 | 0.00 | 0.15 | 0.11 | 49 | 1010.0 |
| 20260507180023 | 61 | 224 | 0.0 | 3.0 | 0.00 | 0.15 | 0.11 | 49 | 1010.1 |
| 20260507174516 | 60 | 70 | 0.0 | 2.0 | 0.00 | 0.15 | 0.11 | 48 | 1010.2 |
| 20260507173026 | 60 | 214 | 0.0 | 2.0 | 0.00 | 0.15 | 0.11 | 53 | 1010.4 |
| 20260507171514 | 59 | 37 | 0.0 | 7.0 | 0.00 | 0.15 | 0.11 | 51 | 1010.6 |
| 20260507170010 | 59 | 356 | 0.0 | 3.0 | 0.00 | 0.15 | 0.11 | 47 | 1010.9 |
| 20260507164508 | 58 | 77 | 0.0 | 2.0 | 0.00 | 0.15 | 0.11 | 50 | 1011.2 |
| 20260507163008 | 58 | 225 | 0.0 | 3.0 | 0.00 | 0.15 | 0.11 | 50 | 1011.4 |
| 20260507161517 | 58 | 85 | 0.0 | 3.0 | 0.00 | 0.15 | 0.11 | 55 | 1011.7 |
| 20260507160008 | 57 | 226 | 0.0 | 3.0 | 0.00 | 0.17 | 0.11 | 52 | 1011.7 |
| 20260507154505 | 57 | 228 | 0.0 | 3.0 | 0.00 | 0.17 | 0.11 | 53 | 1011.9 |
| 20260507153004 | 56 | 314 | 0.0 | 5.0 | 0.00 | 0.17 | 0.11 | 57 | 1012.1 |
| 20260507151504 | 56 | 278 | 0.0 | 3.0 | 0.00 | 0.17 | 0.11 | 55 | 1012.4 |
| 20260507150004 | 57 | 307 | 0.0 | 4.0 | 0.00 | 0.22 | 0.11 | 53 | 1012.6 |
| 20260507144502 | 58 | 98 | 0.0 | 2.0 | 0.00 | 0.22 | 0.11 | 55 | 1012.4 |
| 20260507143001 | 58 | 31 | 0.0 | 5.0 | 0.00 | 0.22 | 0.11 | 59 | 1012.7 |
| 20260507141626 | 58 | 193 | 0.0 | 3.0 | 0.00 | 0.22 | 0.11 | 63 | 1013.0 |
| 20260507140058 | 56 | 6 | 0.0 | 2.0 | 0.00 | 0.22 | 0.11 | 63 | 1013.1 |
| 20260507134554 | 53 | 229 | 0.0 | 1.0 | 0.00 | 0.27 | 0.11 | 66 | 1013.2 |
| 20260507133053 | 53 | 115 | 0.0 | 1.0 | 0.00 | 0.27 | 0.11 | 72 | 1013.2 |
| 20260507131552 | 51 | 304 | 0.0 | 3.0 | 0.00 | 0.27 | 0.11 | 73 | 1013.2 |
| 20260507130058 | 51 | 300 | 0.0 | 3.0 | 0.00 | 0.27 | 0.11 | 73 | 1013.0 |
| 20260507124549 | 50 | 172 | 0.0 | 3.0 | 0.00 | 0.28 | 0.11 | 74 | 1012.9 |
| 20260507123050 | 50 | 221 | 0.0 | 2.0 | 0.00 | 0.28 | 0.11 | 77 | 1012.9 |
| 20260507121547 | 49 | 132 | 0.0 | 1.0 | 0.00 | 0.28 | 0.11 | 83 | 1013.0 |
| 20260507120047 | 49 | 148 | 0.0 | 2.0 | 0.00 | 0.28 | 0.11 | 82 | 1013.1 |
| 20260507114544 | 48 | 195 | 0.0 | 0.0 | 0.00 | 0.28 | 0.11 | 86 | 1012.9 |
| 20260507113042 | 47 | 181 | 0.0 | 0.0 | 0.00 | 0.28 | 0.11 | 91 | 1012.8 |
| 20260507111544 | 47 | 181 | 0.0 | 0.0 | 0.00 | 0.28 | 0.11 | 94 | 1012.6 |
| 20260507110039 | 46 | 181 | 0.0 | 0.0 | 0.00 | 0.28 | 0.11 | 95 | 1012.5 |
| 20260507104537 | 46 | 181 | 0.0 | 0.0 | 0.00 | 0.28 | 0.11 | 95 | 1012.4 |
| 20260507103039 | 46 | 181 | 0.0 | 0.0 | 0.00 | 0.28 | 0.11 | 95 | 1012.0 |
| 20260507101543 | 47 | 181 | 0.0 | 0.0 | 0.00 | 0.28 | 0.11 | 95 | 1011.7 |
| 20260507100036 | 47 | 181 | 0.0 | 0.0 | 0.00 | 0.28 | 0.11 | 95 | 1011.6 |
| 20260507094540 | 47 | 181 | 0.0 | 0.0 | 0.00 | 0.28 | 0.11 | 95 | 1011.7 |
| 20260507093034 | 47 | 181 | 0.0 | 0.0 | 0.00 | 0.28 | 0.11 | 95 | 1011.6 |
| 20260507091530 | 47 | 181 | 0.0 | 0.0 | 0.00 | 0.28 | 0.11 | 95 | 1011.3 |
| 20260507090033 | 47 | 181 | 0.0 | 0.0 | 0.00 | 0.28 | 0.11 | 95 | 1011.3 |
| 20260507084528 | 48 | 184 | 0.0 | 0.0 | 0.00 | 0.28 | 0.11 | 96 | 1011.3 |
| 20260507083023 | 48 | 184 | 0.0 | 0.0 | 0.00 | 0.28 | 0.11 | 96 | 1011.2 |
| 20260507081525 | 48 | 184 | 0.0 | 0.0 | 0.00 | 0.28 | 0.11 | 96 | 1011.0 |
| 20260507080020 | 49 | 184 | 0.0 | 0.0 | 0.00 | 0.28 | 0.11 | 96 | 1010.9 |
| 20260507074518 | 49 | 191 | 0.0 | 0.0 | 0.00 | 0.28 | 0.11 | 96 | 1010.9 |
| 20260507073016 | 50 | 191 | 0.0 | 1.0 | 0.00 | 0.28 | 0.11 | 97 | 1011.2 |
| 20260507071517 | 50 | 236 | 0.0 | 0.0 | 0.01 | 0.28 | 0.11 | 97 | 1011.2 |
| 20260507070019 | 50 | 236 | 0.0 | 0.0 | 0.01 | 0.28 | 0.11 | 97 | 1011.3 |
| 20260507064514 | 50 | 236 | 0.0 | 0.0 | 0.01 | 0.28 | 0.11 | 97 | 1011.0 |
| 20260507063014 | 50 | 236 | 0.0 | 0.0 | 0.02 | 0.28 | 0.11 | 96 | 1011.2 |
| 20260507061514 | 50 | 236 | 0.0 | 0.0 | 0.03 | 0.28 | 0.10 | 96 | 1011.2 |
| 20260507060012 | 50 | 236 | 0.0 | 0.0 | 0.04 | 0.28 | 0.10 | 96 | 1011.3 |
| 20260507054512 | 50 | 236 | 0.0 | 0.0 | 0.05 | 0.28 | 0.10 | 95 | 1011.0 |
| 20260507053010 | 50 | 245 | 0.0 | 0.0 | 0.04 | 0.27 | 0.09 | 95 | 1011.1 |
| 20260507051508 | 51 | 161 | 0.0 | 3.0 | 0.04 | 0.25 | 0.07 | 94 | 1011.2 |
| 20260507050005 | 52 | 302 | 0.0 | 3.0 | 0.06 | 0.24 | 0.06 | 94 | 1011.3 |
| 20260507044506 | 52 | 181 | 0.0 | 0.0 | 0.08 | 0.23 | 0.05 | 95 | 1011.2 |
| 20260507043105 | 53 | 181 | 0.0 | 1.0 | 0.09 | 0.23 | 0.05 | 94 | 1011.0 |
| 20260507041600 | 53 | 260 | 0.0 | 1.0 | 0.07 | 0.21 | 0.03 | 93 | 1010.7 |
| 20260507040053 | 54 | 109 | 0.0 | 1.0 | 0.04 | 0.18 | 0.00 | 90 | 1010.7 |
| 20260507034555 | 56 | 357 | 0.0 | 3.0 | 0.01 | 0.15 | 0.15 | 87 | 1010.2 |
| 20260507033048 | 56 | 134 | 0.0 | 2.0 | 0.00 | 0.14 | 0.14 | 85 | 1010.5 |
| 20260507031547 | 57 | 221 | 0.0 | 1.0 | 0.00 | 0.14 | 0.14 | 86 | 1010.3 |
| 20260507030048 | 57 | 84 | 0.0 | 1.0 | 0.00 | 0.14 | 0.14 | 85 | 1010.1 |
| 20260507024549 | 57 | 300 | 0.0 | 2.0 | 0.00 | 0.14 | 0.14 | 85 | 1010.3 |
| 20260507023041 | 58 | 246 | 0.0 | 2.0 | 0.00 | 0.14 | 0.14 | 85 | 1010.0 |
| 20260507021539 | 58 | 218 | 0.0 | 2.0 | 0.00 | 0.14 | 0.14 | 85 | 1010.2 |
| 20260507020046 | 58 | 86 | 0.0 | 4.0 | 0.00 | 0.14 | 0.14 | 87 | 1010.1 |
| 20260507014536 | 59 | 335 | 0.0 | 2.0 | 0.00 | 0.14 | 0.14 | 88 | 1009.9 |
| 20260507013035 | 59 | 271 | 0.0 | 2.0 | 0.00 | 0.14 | 0.14 | 88 | 1010.0 |
| 20260507011533 | 60 | 191 | 0.0 | 2.0 | 0.00 | 0.14 | 0.14 | 88 | 1010.1 |
| 20260507010034 | 60 | 214 | 0.0 | 1.0 | 0.00 | 0.14 | 0.14 | 89 | 1009.9 |
| 20260507004532 | 61 | 185 | 0.0 | 0.0 | 0.00 | 0.14 | 0.14 | 89 | 1009.7 |
| 20260507003029 | 62 | 122 | 0.0 | 2.0 | 0.00 | 0.14 | 0.14 | 90 | 1009.4 |
| 20260507001535 | 63 | 247 | 0.0 | 1.0 | 0.00 | 0.14 | 0.14 | 93 | 1009.1 |
| 20260507000025 | 63 | 213 | 0.0 | 1.0 | 0.00 | 0.14 | 0.14 | 93 | 1008.6 |
| 20260506234524 | 64 | 219 | 0.0 | 1.0 | 0.00 | 0.14 | 0.14 | 93 | 1008.3 |
| 20260506233024 | 64 | 229 | 0.0 | 0.0 | 0.00 | 0.14 | 0.14 | 92 | 1007.9 |
| 20260506231527 | 64 | 212 | 0.0 | 2.0 | 0.00 | 0.14 | 0.14 | 91 | 1008.0 |
| 20260506230022 | 65 | 209 | 0.0 | 2.0 | 0.00 | 0.14 | 0.14 | 90 | 1008.0 |
| 20260506224523 | 65 | 210 | 0.0 | 3.0 | 0.00 | 0.14 | 0.14 | 89 | 1007.9 |
| 20260506223021 | 66 | 233 | 0.0 | 4.0 | 0.00 | 0.14 | 0.14 | 88 | 1007.9 |
| 20260506221520 | 66 | 211 | 0.0 | 3.0 | 0.00 | 0.14 | 0.14 | 88 | 1007.7 |
| 20260506220020 | 66 | 195 | 0.0 | 4.0 | 0.00 | 0.14 | 0.14 | 88 | 1007.6 |
| 20260506214519 | 66 | 252 | 0.0 | 3.0 | 0.00 | 0.14 | 0.14 | 88 | 1007.3 |
| 20260506213019 | 66 | 220 | 0.0 | 3.0 | 0.00 | 0.14 | 0.14 | 87 | 1007.1 |
| 20260506211518 | 66 | 217 | 0.0 | 4.0 | 0.00 | 0.14 | 0.14 | 87 | 1007.2 |
| 20260506210022 | 67 | 194 | 0.0 | 2.0 | 0.00 | 0.14 | 0.14 | 87 | 1006.9 |
| 20260506204517 | 66 | 257 | 0.0 | 3.0 | 0.00 | 0.14 | 0.14 | 89 | 1006.9 |
| 20260506203015 | 65 | 203 | 0.0 | 2.0 | 0.00 | 0.14 | 0.14 | 91 | 1006.8 |
| 20260506201515 | 64 | 219 | 0.0 | 1.0 | 0.00 | 0.14 | 0.14 | 92 | 1007.1 |
| 20260506200014 | 64 | 193 | 0.0 | 0.0 | 0.00 | 0.14 | 0.14 | 92 | 1006.9 |
| 20260506194513 | 64 | 214 | 0.0 | 2.0 | 0.00 | 0.14 | 0.14 | 91 | 1007.0 |
| 20260506193012 | 64 | 214 | 0.0 | 4.0 | 0.00 | 0.14 | 0.14 | 91 | 1007.1 |
| 20260506191512 | 64 | 204 | 0.0 | 3.0 | 0.00 | 0.14 | 0.14 | 90 | 1007.2 |
| 20260506190011 | 64 | 203 | 0.0 | 1.0 | 0.00 | 0.14 | 0.14 | 92 | 1007.1 |